When you browse on this site, cookies collect data to enhance your experience and personalize the content and advertising you see.
Visit our Privacy Policy to learn more. By continuing to use the site, you agree to this use of cookies and data.
  • In Deutschland
  • Länderverzeichnis
  • Für 7 Tage
  • Wassertemperatur
  • Wetterkarte
  • Widgets
  • user-avatar
    Anmelden

    Stündliche Wetter Stuttgart

    Heute, 20 August, Dienstag

    Zeit Temperatur Niederschläge Wind Luftdruck Luftfeuchtigkeit
    00:00 +18°C° 0 mm 0 m/S 739 mmHg 69%
    01:00 +20°C° 0 mm 1 m/S 739 mmHg 69%
    02:00 +19°C° 0 mm 1 m/S 739 mmHg 69%
    03:00 +19°C° 0 mm 1 m/S 739 mmHg 70%
    04:00 +19°C° 0 mm 1 m/S 739 mmHg 70%
    05:00 +19°C° 0 mm 1 m/S 739 mmHg 72%
    06:00 +19°C° 0 mm 1 m/S 739 mmHg 75%
    07:00 +19°C° 0 mm 1 m/S 739 mmHg 77%
    08:00 +19°C° 0.1 mm 1 m/S 739 mmHg 76%
    09:00 +19°C° 0.1 mm 1 m/S 740 mmHg 75%
    10:00 +19°C° 0.1 mm 2 m/S 740 mmHg 74%
    11:00 +18°C° 0.3 mm 2 m/S 740 mmHg 77%
    12:00 +18°C° 0.3 mm 2 m/S 740 mmHg 80%
    13:00 +17°C° 0.3 mm 2 m/S 740 mmHg 84%
    14:00 +17°C° 1.5 mm 2 m/S 741 mmHg 86%
    15:00 +16°C° 1.5 mm 2 m/S 741 mmHg 89%
    16:00 +16°C° 1.5 mm 2 m/S 741 mmHg 91%
    17:00 +16°C° 1.4 mm 1 m/S 742 mmHg 92%
    18:00 +15°C° 1.4 mm 1 m/S 742 mmHg 92%
    19:00 +14°C° 1.4 mm 0 m/S 742 mmHg 93%
    20:00 +15°C° 0.5 mm 1 m/S 743 mmHg 93%
    21:00 +15°C° 0.5 mm 1 m/S 743 mmHg 93%
    22:00 +14°C° 0.5 mm 1 m/S 743 mmHg 93%
    23:00 +14°C° 0.1 mm 1 m/S 744 mmHg 92%

    Morgen, 21 August, Mittwoch

    Zeit Temperatur Niederschläge Wind Luftdruck Luftfeuchtigkeit
    00:00 +14°C° 0.1 mm 1 m/S 744 mmHg 92%
    01:00 +14°C° 0.1 mm 1 m/S 744 mmHg 91%
    02:00 +14°C° 0 mm 1 m/S 744 mmHg 91%
    03:00 +13°C° 0 mm 1 m/S 744 mmHg 91%
    04:00 +13°C° 0 mm 1 m/S 744 mmHg 91%
    05:00 +13°C° 0 mm 1 m/S 744 mmHg 89%
    06:00 +14°C° 0 mm 1 m/S 744 mmHg 88%
    07:00 +13°C° 0 mm 0 m/S 744 mmHg 87%
    08:00 +16°C° 0 mm 1 m/S 744 mmHg 79%
    09:00 +19°C° 0 mm 1 m/S 744 mmHg 72%
    10:00 +19°C° 0 mm 2 m/S 744 mmHg 65%
    11:00 +20°C° 0 mm 2 m/S 743 mmHg 62%
    12:00 +21°C° 0 mm 3 m/S 743 mmHg 60%
    13:00 +22°C° 0 mm 3 m/S 743 mmHg 57%
    14:00 +22°C° 0 mm 3 m/S 742 mmHg 58%
    15:00 +22°C° 0 mm 3 m/S 742 mmHg 58%
    16:00 +22°C° 0 mm 3 m/S 742 mmHg 59%
    17:00 +21°C° 0 mm 3 m/S 742 mmHg 65%
    18:00 +20°C° 0 mm 2 m/S 742 mmHg 70%
    19:00 +18°C° 0 mm 2 m/S 742 mmHg 75%
    20:00 +18°C° 0 mm 2 m/S 742 mmHg 77%
    21:00 +18°C° 0 mm 1 m/S 742 mmHg 79%
    22:00 +16°C° 0 mm 1 m/S 742 mmHg 81%
    23:00 +16°C° 0 mm 1 m/S 742 mmHg 82%

    übermorgen, 22 August, Donnerstag

    Zeit Temperatur Niederschläge Wind Luftdruck Luftfeuchtigkeit
    00:00 +15°C° 0 mm 1 m/S 741 mmHg 84%
    01:00 +15°C° 0 mm 1 m/S 741 mmHg 85%
    02:00 +14°C° 0 mm 1 m/S 741 mmHg 86%
    03:00 +14°C° 0 mm 1 m/S 741 mmHg 88%
    04:00 +14°C° 0 mm 1 m/S 741 mmHg 89%
    05:00 +14°C° 0 mm 1 m/S 741 mmHg 88%
    06:00 +15°C° 0 mm 1 m/S 742 mmHg 86%
    07:00 +16°C° 0 mm 1 m/S 742 mmHg 85%
    08:00 +18°C° 0 mm 1 m/S 742 mmHg 78%
    09:00 +19°C° 0 mm 2 m/S 742 mmHg 72%
    10:00 +21°C° 0 mm 2 m/S 742 mmHg 65%
    11:00 +23°C° 0 mm 2 m/S 742 mmHg 62%
    12:00 +24°C° 0 mm 2 m/S 742 mmHg 58%
    13:00 +25°C° 0 mm 3 m/S 742 mmHg 55%
    14:00 +25°C° 0 mm 2 m/S 742 mmHg 56%
    15:00 +25°C° 0 mm 2 m/S 741 mmHg 57%
    16:00 +26°C° 0 mm 2 m/S 741 mmHg 58%
    17:00 +24°C° 0 mm 2 m/S 741 mmHg 64%
    18:00 +23°C° 0 mm 2 m/S 741 mmHg 70%
    19:00 +20°C° 0 mm 2 m/S 741 mmHg 76%
    20:00 +20°C° 0 mm 1 m/S 742 mmHg 78%
    21:00 +19°C° 0 mm 1 m/S 742 mmHg 80%
    22:00 +18°C° 0 mm 1 m/S 742 mmHg 82%
    23:00 +18°C° 0 mm 1 m/S 742 mmHg 83%

    23 August, Freitag

    Zeit Temperatur Niederschläge Wind Luftdruck Luftfeuchtigkeit
    00:00 +16°C° 0 mm 1 m/S 742 mmHg 83%
    01:00 +16°C° 0 mm 1 m/S 742 mmHg 84%
    02:00 +16°C° 0 mm 1 m/S 741 mmHg 86%
    03:00 +15°C° 0 mm 1 m/S 741 mmHg 87%
    04:00 +15°C° 0 mm 1 m/S 741 mmHg 88%
    05:00 +15°C° 0 mm 1 m/S 741 mmHg 86%
    06:00 +16°C° 0 mm 1 m/S 741 mmHg 84%
    07:00 +18°C° 0 mm 1 m/S 741 mmHg 82%
    08:00 +20°C° 0 mm 1 m/S 742 mmHg 76%
    09:00 +21°C° 0 mm 2 m/S 742 mmHg 70%
    10:00 +24°C° 0 mm 3 m/S 742 mmHg 64%
    11:00 +25°C° 0 mm 3 m/S 742 mmHg 61%
    12:00 +26°C° 0 mm 3 m/S 741 mmHg 58%
    13:00 +27°C° 0 mm 4 m/S 741 mmHg 55%
    14:00 +27°C° 0 mm 4 m/S 741 mmHg 55%
    15:00 +27°C° 0 mm 4 m/S 740 mmHg 55%
    16:00 +27°C° 0 mm 4 m/S 740 mmHg 56%
    17:00 +25°C° 0 mm 3 m/S 740 mmHg 62%
    18:00 +24°C° 0 mm 2 m/S 740 mmHg 68%
    19:00 +21°C° 0 mm 2 m/S 740 mmHg 74%
    20:00 +20°C° 0 mm 2 m/S 740 mmHg 76%
    21:00 +20°C° 0 mm 1 m/S 740 mmHg 79%
    22:00 +19°C° 0 mm 1 m/S 740 mmHg 81%
    23:00 +18°C° 0 mm 1 m/S 739 mmHg 83%

    24 August, Samstag

    Zeit Temperatur Niederschläge Wind Luftdruck Luftfeuchtigkeit
    00:00 +18°C° 0 mm 1 m/S 739 mmHg 84%
    01:00 +18°C° 0 mm 1 m/S 739 mmHg 85%
    02:00 +16°C° 0 mm 1 m/S 739 mmHg 86%
    03:00 +16°C° 0 mm 1 m/S 738 mmHg 87%
    04:00 +16°C° 0 mm 1 m/S 738 mmHg 88%
    05:00 +16°C° 0 mm 1 m/S 738 mmHg 87%
    06:00 +18°C° 0 mm 1 m/S 738 mmHg 86%
    07:00 +18°C° 0 mm 1 m/S 738 mmHg 84%
    08:00 +20°C° 0 mm 1 m/S 738 mmHg 78%
    09:00 +22°C° 0 mm 1 m/S 738 mmHg 72%
    10:00 +24°C° 0 mm 1 m/S 739 mmHg 66%
    11:00 +26°C° 0 mm 1 m/S 738 mmHg 63%
    12:00 +28°C° 0 mm 1 m/S 738 mmHg 59%
    13:00 +27°C° 0 mm 0 m/S 738 mmHg 55%
    14:00 +27°C° 0 mm 0 m/S 738 mmHg 54%
    15:00 +27°C° 0 mm 0 m/S 737 mmHg 53%
    16:00 +29°C° 0 mm 1 m/S 737 mmHg 53%
    17:00 +26°C° 0.1 mm 0 m/S 737 mmHg 59%
    18:00 +24°C° 0.1 mm 0 m/S 737 mmHg 65%
    19:00 +22°C° 0.1 mm 0 m/S 737 mmHg 71%
    20:00 +22°C° 0 mm 0 m/S 737 mmHg 74%
    21:00 +21°C° 0 mm 0 m/S 737 mmHg 76%
    22:00 +20°C° 0 mm 0 m/S 737 mmHg 79%
    23:00 +19°C° 0 mm 0 m/S 737 mmHg 80%

    25 August, Sonntag

    Zeit Temperatur Niederschläge Wind Luftdruck Luftfeuchtigkeit
    00:00 +19°C° 0 mm 0 m/S 737 mmHg 82%
    01:00 +18°C° 0 mm 0 m/S 737 mmHg 83%
    02:00 +20°C° 0 mm 1 m/S 737 mmHg 84%
    03:00 +20°C° 0 mm 1 m/S 737 mmHg 85%
    04:00 +20°C° 0 mm 1 m/S 737 mmHg 86%
    05:00 +20°C° 0 mm 1 m/S 737 mmHg 85%
    06:00 +21°C° 0 mm 1 m/S 737 mmHg 83%
    07:00 +21°C° 0 mm 1 m/S 737 mmHg 82%
    08:00 +24°C° 0 mm 1 m/S 737 mmHg 74%
    09:00 +26°C° 0 mm 1 m/S 737 mmHg 66%
    10:00 +28°C° 0 mm 1 m/S 737 mmHg 59%
    11:00 +29°C° 0 mm 1 m/S 737 mmHg 53%
    12:00 +30°C° 0 mm 1 m/S 737 mmHg 47%
    13:00 +32°C° 0 mm 1 m/S 737 mmHg 41%
    14:00 +31°C° 0 mm 1 m/S 736 mmHg 41%
    15:00 +31°C° 0 mm 1 m/S 736 mmHg 42%
    16:00 +31°C° 0 mm 1 m/S 736 mmHg 43%
    17:00 +29°C° 0 mm 1 m/S 736 mmHg 50%
    18:00 +27°C° 0 mm 1 m/S 736 mmHg 56%
    19:00 +25°C° 0 mm 1 m/S 736 mmHg 63%
    20:00 +25°C° 0 mm 1 m/S 736 mmHg 66%
    21:00 +24°C° 0 mm 1 m/S 736 mmHg 68%
    22:00 +23°C° 0 mm 1 m/S 736 mmHg 70%
    23:00 +23°C° 0 mm 1 m/S 736 mmHg 72%
    Mehr zeigen